THORAD AGENA D DEB *, 5967

Orbit data source: Space-Track

THORAD AGENA D DEB *, 5967 is space debris in SSO originally from a launch on Wed, 08 Apr 1970 UTC launched from the Air Force Western Test Range (AFWTR). Debris objects in space refer to the collection of defunct objects orbiting the Earth. Examples of debris include non-operational satellites, rocket bodies, and fragments generated from explosions, collisions, or faulty payload assembly.

Loading next visibility...
Identifier
5967, 1970-025MQ
Orbit
SSO
Country
Flag of USUS
Related business
Manufacturer
Unknown
Mission
Spacecraft
Bus & Motor
Unknown
Mass
Unknown
Launch date (UTC)
1970-04-08 (56 years ago)
Launch vehicle
Unknown
Launch site
Air Force Western Test Range (AFWTR)
Object type
Payload
Rocket body
Debris
Shape & HBR
Unknown shape, 0.1 m
Radar Cross Section
Small (<0.1 m²)

Expand to show TLE details & history
Last TLE update: 11 hours ago

TLE from 11 hours ago
0 THORAD AGENA D DEB *
1 05967U 70025MQ  25287.89227304  .00000571  00000-0  21862-2 0  9994
2 05967 101.6459 162.7379 0128586  45.7808 329.2768 12.93157047606741
Epoch: 2025-10-14T21:24Z
TLE epoch observation values (Epoch: 2025-10-14T21:24:52.390Z)
Latitude
13.96703°
Longitude
174.92196°
Altitude
1,206.502 km
Speed
7.292 km/s
True Right ascension
10h 39m 15s
True Declination
13° 53' 29"
Sunlit
Object was in daylight at epoch
Visualization orbit readout
Latitude
Unknown
Longitude
Unknown
Altitude
Unknown
Speed
Unknown
Apparent Right ascension
Unknown
Apparent Declination
Unknown
Sunlit
N/A
Visualization observer readout
Local Sidereal Time
02:52:17
Azimuth
Unknown
Elevation
Unknown
Doppler factor
Unknown
Orbital elements
Apogee altitude
1,385.06 km
Perigee altitude
1,187.947 km
Semi-major axis
7,664.64 km
Eccentricity
0.01286
Inclination
101.6459°
RAAN
162.7379°
Arg. of periapsis
45.7808°
True anomaly
328.51349°
Mean anomaly
329.2768°
Eccentric anomaly
328.89621°
Mean motion
3.23449 °/min
Orbital period
111.3 mins
BSTAR
0.0021862

Documentation

Showing up to 5 results
|